Showing default

ZHUHAI-1 01, 42761

Orbit data source: Space-Track

ZHUHAI-1 01, 42761 is a payload satellite owned by Zhuhai Orbita (CN) in LEO that was launched on Thu, 15 Jun 2017 UTC via a CHANG ZHENG 4B launch vehicle from the Jiuquan Satellite Launch Center, China (JSC). Payload-class satellites include a variety of spacecraft equipped with specific instruments for various scientific and technological missions. These include communications satellites like Starlink; space stations such as the ISS; scientific satellites like the Hubble; Earth observation satellites from companies like Planet Labs, Umbra, and HawkEye 360; GPS; miniature CubeSats for education and research; and military/defense satellites.

Loading next visibility...
Identifier
42761, 2017-034D
Orbit
LEO
Last TLE update
10 hours ago
Origin
Manufacturer
Zhuhai Orbita
Mission
Operational Commercial Imaging
Bus & Motor
OVS-1, Unknown motor
Mass
50 kg wet, 50 kg dry
Launch date (UTC)
2017-06-15 (8 years ago)
Launch vehicle
CHANG ZHENG 4B
Launch site
Jiuquan Satellite Launch Center, China (JSC)
Object type
Payload
Rocket body
Debris
Shape & HBR
Box, 1 m
Radar Cross Section
0.375 m², Medium (>0.1 m² and < 1m²)

Expand to show TLE details & history

TLE from 10 hours ago
0 ZHUHAI-1 01
1 42761U 17034D   25183.71541112  .00064872  00000-0  57348-3 0  9993
2 42761  43.0085 180.5842 0020124  96.8883 263.4273 15.67506311446254
Epoch: 2025-07-02T17:10Z
TLE epoch observation values (Epoch: 2025-07-02T17:10:11.52Z)
Latitude
-0.00008°
Longitude
2.04358°
Altitude
367.393 km
Speed
7.69 km/s
True Right ascension
12h 02m 20s
True Declination
0° 00' 00"
Sunlit
Object was in daylight at epoch
Visualization orbit readout
Latitude
5.79726°
Longitude
173.35482°
Altitude
360.82 km
Speed
7.698 km/s
Apparent Right ascension
00h 51m 42s
Apparent Declination
-17° 52' 31"
Sunlit
Object is in daylight
Visualization observer readout
Local Sidereal Time
14:49:23
Azimuth
57.615° ENE
Elevation
-56.385°
Doppler factor
1
Orbital elements
Apogee altitude
381.594 km
Perigee altitude
354.442 km
Semi-major axis
6,746.155 km
Eccentricity
0.00201
Inclination
43.0085°
RAAN
180.5842°
Arg. of periapsis
96.8883°
True anomaly
Unknown
Mean anomaly
263.4273°
Eccentric anomaly
Unknown
Mean motion
3.91705 °/min
Orbital period
91.91 mins
BSTAR
0.00057348
Loading maneuver chart data...
Loading SW <> Apogee altitude chart data...
Loading historical data...
Loading historical data...
Loading historical data...
Loading historical data...
Loading historical data...
Loading historical data...
Loading historical data...

ZHUHAI-1 01 Visibility forecast

Observer location: undefined°, undefined°

Span
Click to sort rows by Start time (UTC) header in descending order
Start Az.
Max El. time (UTC)
Max El. Az.
Max El.
End time (UTC)
End Az.
5 mins2025-07-03 04:07:16.105Z245.54° WSW2025-07-03 04:10:16.105Z88.162° E39.847°2025-07-03 04:12:16.105Z73.823° E
4 mins2025-07-03 07:21:16.105Z297.768° NW2025-07-03 07:22:16.105Z322.76° NNW38.998°2025-07-03 07:25:16.105Z96.854° ESE
|